Regional Weather Roundup
Issued by NWS

Home | Current Version | Previous Version | Text Only | Print | Product List | Glossary On
Versions: 1 2 3 4 5 6 7 8 9 10 11 12 13 14 15 16 17 18 19 20 21 22 23 24 25 26 27 28 29 30 31 32 33 34 35 36 37 38 39 40 41 42 43 44 45 46 47 48 49 50
000
ASUS45 KSLC 071710
RWRUT

UTAH REGIONAL WEATHER ROUNDUP
NATIONAL WEATHER SERVICE SALT LAKE CITY UT
1000 AM MST WED DEC 07 2016

UTZ001>011-023>025-071800-

NORTHERN UTAH

CITY           SKY/WX    TMP DP  RH WIND       PRES   REMARKS
BRIGHAM CITY     N/A     23  11  59 CALM      30.27R
DUGWAY         MOSUNNY   24  11  59 W3        30.28R
HILL AFB       MOSUNNY   20   9  60 E7        30.23R WCI  11
LOGAN          SUNNY     19  10  68 SE5       30.26R WCI  12
OGDEN          SUNNY     22  13  68 CALM      30.24R
SALT LAKE CITY PTSUNNY   24  14  65 N8        30.26R WCI  15
TOOELE VALLEY  PTSUNNY   27  16  63 CALM      30.28R
WENDOVER       SUNNY     23   7  50 N9        30.29R WCI  13
HEBER CITY     MOSUNNY   19  10  68 CALM      30.16R
WEST JORDAN    CLOUDY    22  18  86 NW7       30.25R WCI  13

$$

UTZ011>015-024>027-071800-

CENTRAL/NORTHEAST UTAH

CITY           SKY/WX    TMP DP  RH WIND       PRES   REMARKS
PROVO AIRPORT  MOSUNNY   25  16  68 VRB6      30.25R WCI  18
MOAB/CANYONLAN SUNNY     32   7  35 W12       30.15R WCI  23
DELTA          CLOUDY    25  10  54 N12       30.23R WCI  14
PRICE          SUNNY     24   6  46 W6        30.12R WCI  17
RICHFIELD      PTSUNNY   25  12  58 NE6       30.22R WCI  18
ROOSEVELT      SUNNY     27   9  46 N3        30.17R
VERNAL         SUNNY     22   8  55 S3        30.14R

$$

UTZ013>016-019>022-027-071800-

SOUTHERN UTAH

CITY           SKY/WX    TMP DP  RH WIND       PRES   REMARKS
BRYCE CANYON   SUNNY     18   7  62 NE9       30.07  WCI   7
CEDAR CITY     SUNNY     22  11  62 VRB3      30.13R
MILFORD        SUNNY     24  13  62 N17       30.19R WCI  11
ST GEORGE      SUNNY     39  12  33 CALM      30.19R
HANKSVILLE     SUNNY     32  12  43 CALM      30.20R
KANAB          SUNNY     36   9  32 N7        30.16R WCI  30
BLANDING       SUNNY     30   9  40 CALM      30.18R

$$

REGIONAL REPORTS     COLORADO/ARIZONA

CITY           SKY/WX    TMP DP  RH WIND       PRES   REMARKS
CRAIG, CO      CLOUDY    14   7  73 N5        30.12R WCI   6
GRAND JUNCTION SUNNY     24  20  84 E6        30.15R WCI  17
RIFLE, CO      MOSUNNY   21  13  71 W5        30.13R WCI  15
MONTROSE, CO   SUNNY     22  15  75 SE5       30.15R WCI  16
CORTEZ, CO     MOSUNNY   28   9  44 N8        30.10R WCI  20
COLORADO CITY    N/A     34  14  44 CALM      30.14R
PAGE, AZ       SUNNY     39   2  21 NW6       30.12R WCI  35
GRAND CANYON   MOSUNNY   34  26  72 CALM      30.08R
KINGMAN, AZ    MOSUNNY   43  14  31 E8        30.11R
FLAGSTAFF, AZ  PTSUNNY   34  26  72 CALM      30.07R

$$

REGIONAL REPORTS    NEVADA/IDAHO/WYOMING

CITY           SKY/WX    TMP DP  RH WIND       PRES   REMARKS
LAS VEGAS, NV  PTSUNNY   48   8  19 N13       30.17R
ELY, NY        SUNNY     17   9  70 CALM      30.17R
ELKO, NV       SUNNY     16   5  62 VRB5      30.23R WCI   9
POCATELLO, ID  LGT SNOW  19  15  84 CALM      30.28R VSB 1
BURLEY, ID     FLURRIES  18  15  88 W5        30.28R WCI  11
FORT BRIDGER,    N/A     10   5  79 W6        30.14R WCI   1
EVANSTON, WY   SUNNY     10   2  69 NE3       30.10R
ROCK SPRINGS,  CLOUDY     4  -1  80 NE8       30.11R HAZE    WCI  -9

$$



USA.gov is the U.S. government's official web portal to all federal, state and local government web resources and services.